Carbondale, IL

7:03 PM CST on November 20, 2019 (GMT -0600)
Southern Illinois

Weather History for KMDH - August, 2019

Change the Weather History Date:

Thursday, August 15, 2019

  Actual Average Record
Temperature  
Mean Temperature 74 °F -  
Max Temperature 84 °F 88 °F 103 °F (1918)
Min Temperature 64 °F 63 °F 49 °F (1962)
Cooling Degree Days 9    
Growing Degree Days 24 (Base 50)    
Moisture  
Dew Point 64 °F    
Average Humidity 75    
Maximum Humidity 93    
Minimum Humidity 47    
Precipitation  
Precipitation 0.00 in - - ()
Sea Level Pressure  
Sea Level Pressure 30.01 in    
Wind  
Wind Speed 3 mph (NW)    
Max Wind Speed 8 mph    
Max Gust Speed -    
Visibility 10 miles    
Events      
Averages and records for this station are not official NWS values.
T = Trace of Precipitation, MM = Missing Value Source: NWS Daily Summary

Daily Weather History Graph

Daily Weather History Graph

Search for Another Location

Airport or City:

Astronomy

Aug. 15, 2019 Rise Set
Actual Time 6:12 AM CDT 7:50 PM CDT
Civil Twilight 5:44 AM CDT 8:17 PM CDT
Nautical Twilight 5:10 AM CDT 8:51 PM CDT
Astronomical Twilight 4:34 AM CDT 9:27 PM CDT
Moon 8:18 PM CDT (8/15) 6:07 AM CDT (8/15)
Length of Visible Light 14h 33m
Length of Day
13h 37m
Full, 100% of the Moon is Illuminated
Aug 15
Full
Aug 23
Last Quarter
Aug 30
New
Sep 5
First Quarter
Sep 13
Full

Hourly Weather History & Observations

Time (CDT) Temp. Heat Index Dew Point Humidity Pressure Visibility Wind Dir Wind Speed Gust Speed Precip Events Conditions
12:52 AM 68.0 °F - 66.0 °F 93% 30.02 in 10.0 mi WSW 3.5 mph - N/A   Clear
1:52 AM 66.9 °F - 64.9 °F 93% 30.00 in 10.0 mi Calm Calm - N/A   Clear
2:52 AM 66.9 °F - 64.9 °F 93% 30.00 in 10.0 mi Calm Calm - N/A   Clear
3:52 AM 66.9 °F - 64.0 °F 90% 29.99 in 10.0 mi Calm Calm - N/A   Clear
4:52 AM 64.9 °F - 63.0 °F 93% 29.99 in 10.0 mi NW 3.5 mph - N/A   Clear
5:52 AM 64.0 °F - 62.1 °F 93% 30.01 in 10.0 mi Calm Calm - N/A   Clear
6:52 AM 66.0 °F - 63.0 °F 90% 30.02 in 10.0 mi WNW 3.5 mph - N/A   Clear
7:52 AM 70.0 °F - 64.0 °F 81% 30.04 in 10.0 mi NW 3.5 mph - N/A   Clear
8:52 AM 73.0 °F - 64.0 °F 73% 30.04 in 10.0 mi NW 6.9 mph - N/A   Clear
9:52 AM 75.9 °F - 64.9 °F 69% 30.05 in 10.0 mi NW 5.8 mph - N/A   Clear
10:52 AM 78.1 °F - 64.0 °F 62% 30.05 in 10.0 mi NNW 8.1 mph - N/A   Partly Cloudy
11:52 AM 78.1 °F - 64.0 °F 62% 30.04 in 10.0 mi Variable 3.5 mph - N/A   Overcast
12:52 PM 81.0 °F 82.5 °F 64.0 °F 56% 30.03 in 10.0 mi West 4.6 mph - N/A   Partly Cloudy
1:52 PM 81.0 °F 82.2 °F 63.0 °F 54% 30.01 in 10.0 mi Variable 3.5 mph - N/A   Scattered Clouds
2:52 PM 82.9 °F 84.0 °F 63.0 °F 51% 30.02 in 10.0 mi Variable 3.5 mph - N/A   Partly Cloudy
3:52 PM 84.0 °F 84.5 °F 62.1 °F 47% 30.01 in 10.0 mi NNW 5.8 mph - N/A   Clear
4:52 PM 84.0 °F 84.5 °F 62.1 °F 47% 29.99 in 10.0 mi NW 4.6 mph - N/A   Clear
5:52 PM 82.9 °F 83.7 °F 62.1 °F 49% 29.98 in 10.0 mi WSW 3.5 mph - N/A   Clear
6:52 PM 81.0 °F 82.7 °F 64.9 °F 58% 29.98 in 10.0 mi WNW 3.5 mph - N/A   Clear
7:52 PM 73.9 °F - 70.0 °F 87% 29.97 in 10.0 mi East 3.5 mph - N/A   Clear
8:52 PM 70.0 °F - 66.9 °F 90% 29.97 in 10.0 mi East 4.6 mph - N/A   Clear
9:52 PM 69.1 °F - 66.0 °F 90% 29.96 in 10.0 mi South 3.5 mph - N/A   Clear
10:52 PM 68.0 °F - 66.0 °F 93% 30.00 in 10.0 mi Calm Calm - N/A   Clear
11:52 PM 66.9 °F - 64.9 °F 93% 30.00 in 7.0 mi Calm Calm - N/A   Clear